Time,TemperatureF,DewpointF,PressureIn,WindDirection,WindDirectionDegrees,WindSpeedMPH,WindSpeedGustMPH,Humidity,HourlyPrecipIn,Conditions,Clouds,dailyrainin,SoftwareType,DateUTC
2013-10-18 00:02:00,43.9,36.8,29.82,SSW,193,0.0,0.0,76,0.00,,,0.00,Wunderground v.1.15,2013-10-18 05:02:00,
2013-10-18 00:07:00,44.0,36.9,29.82,SSW,192,0.0,0.0,76,0.00,,,0.00,Wunderground v.1.15,2013-10-18 05:07:00,
2013-10-18 00:13:00,43.8,37.1,29.82,SSW,198,0.0,0.0,77,0.00,,,0.00,Wunderground v.1.15,2013-10-18 05:13:00,
2013-10-18 00:18:00,43.5,37.1,29.82,SE,145,0.0,0.0,78,0.00,,,0.00,Wunderground v.1.15,2013-10-18 05:18:00,
2013-10-18 00:24:00,43.3,36.9,29.82,SSW,201,0.0,0.0,78,0.00,,,0.00,Wunderground v.1.15,2013-10-18 05:24:00,
2013-10-18 00:30:00,43.2,37.1,29.82,SSW,192,0.0,0.0,79,0.00,,,0.00,Wunderground v.1.15,2013-10-18 05:30:00,
2013-10-18 00:36:00,43.4,37.3,29.82,SSW,200,0.0,0.0,79,0.00,,,0.00,Wunderground v.1.15,2013-10-18 05:36:00,
2013-10-18 00:41:00,43.8,37.7,29.82,SSE,155,0.0,0.0,79,0.00,,,0.00,Wunderground v.1.15,2013-10-18 05:41:00,
2013-10-18 00:47:00,44.1,37.7,29.82,SSW,195,0.0,0.0,78,0.00,,,0.00,Wunderground v.1.15,2013-10-18 05:47:00,
2013-10-18 00:53:00,44.5,37.4,29.82,SSW,213,0.0,0.0,76,0.00,,,0.00,Wunderground v.1.15,2013-10-18 05:53:00,
2013-10-18 00:59:00,44.9,37.8,29.81,South,173,0.0,0.0,76,0.00,,,0.00,Wunderground v.1.15,2013-10-18 05:59:00,
2013-10-18 01:04:00,45.0,37.9,29.81,SSW,194,0.0,0.0,76,0.00,,,0.00,Wunderground v.1.15,2013-10-18 06:04:00,
2013-10-18 01:09:00,45.2,37.4,29.81,South,175,0.0,0.0,74,0.00,,,0.00,Wunderground v.1.15,2013-10-18 06:09:00,
2013-10-18 01:15:00,45.6,37.1,29.81,SSW,198,0.0,0.0,72,0.00,,,0.00,Wunderground v.1.15,2013-10-18 06:15:00,
2013-10-18 01:21:00,46.0,37.5,29.81,SE,124,0.0,0.0,72,0.00,,,0.00,Wunderground v.1.15,2013-10-18 06:21:00,
2013-10-18 01:27:00,46.0,37.5,29.81,South,171,0.0,0.0,72,0.00,,,0.00,Wunderground v.1.15,2013-10-18 06:27:00,
2013-10-18 01:32:00,46.2,36.6,29.81,SSW,208,0.0,0.0,69,0.00,,,0.00,Wunderground v.1.15,2013-10-18 06:32:00,
2013-10-18 01:38:00,46.3,37.0,29.81,SSW,198,0.0,0.0,70,0.00,,,0.00,Wunderground v.1.15,2013-10-18 06:38:00,
2013-10-18 01:44:00,46.1,37.2,29.80,South,185,0.0,0.0,71,0.00,,,0.00,Wunderground v.1.15,2013-10-18 06:44:00,
2013-10-18 01:50:00,45.9,37.4,29.80,South,173,0.0,0.0,72,0.00,,,0.00,Wunderground v.1.15,2013-10-18 06:50:00,
2013-10-18 01:55:00,45.6,37.4,29.81,South,184,0.0,0.0,73,0.00,,,0.00,Wunderground v.1.15,2013-10-18 06:55:00,
2013-10-18 02:01:00,45.3,37.5,29.81,South,187,0.0,0.0,74,0.00,,,0.00,Wunderground v.1.15,2013-10-18 07:01:00,
2013-10-18 02:06:00,45.1,37.3,29.80,South,179,0.0,0.0,74,0.00,,,0.00,Wunderground v.1.15,2013-10-18 07:06:00,
2013-10-18 02:11:00,44.7,36.9,29.80,SSW,194,0.0,0.0,74,0.00,,,0.00,Wunderground v.1.15,2013-10-18 07:11:00,
2013-10-18 02:16:00,44.5,37.1,29.80,SSE,153,0.0,0.0,75,0.00,,,0.00,Wunderground v.1.15,2013-10-18 07:16:00,
2013-10-18 02:21:00,44.3,37.2,29.80,SSW,209,0.0,0.0,76,0.00,,,0.00,Wunderground v.1.15,2013-10-18 07:21:00,
2013-10-18 02:26:00,44.2,37.1,29.80,SSW,201,0.0,0.0,76,0.00,,,0.00,Wunderground v.1.15,2013-10-18 07:26:00,
2013-10-18 02:31:00,44.1,37.3,29.80,SSW,202,0.0,0.0,77,0.00,,,0.00,Wunderground v.1.15,2013-10-18 07:31:00,
2013-10-18 02:36:00,43.9,36.8,29.80,SW,217,0.0,0.0,76,0.00,,,0.00,Wunderground v.1.15,2013-10-18 07:36:00,
2013-10-18 02:41:00,43.8,37.4,29.80,SW,236,0.0,0.0,78,0.00,,,0.00,Wunderground v.1.15,2013-10-18 07:41:00,
2013-10-18 02:46:00,43.6,37.2,29.80,South,191,0.0,0.0,78,0.00,,,0.00,Wunderground v.1.15,2013-10-18 07:46:00,
2013-10-18 02:52:00,43.8,37.1,29.80,South,189,0.0,0.0,77,0.00,,,0.00,Wunderground v.1.15,2013-10-18 07:52:00,
2013-10-18 02:57:00,44.0,37.3,29.80,SSW,208,0.0,0.0,77,0.00,,,0.00,Wunderground v.1.15,2013-10-18 07:57:00,
2013-10-18 03:02:00,44.0,37.3,29.79,South,180,0.0,0.0,77,0.00,,,0.00,Wunderground v.1.15,2013-10-18 08:02:00,
2013-10-18 03:07:00,43.9,37.2,29.79,SW,227,0.0,0.0,77,0.00,,,0.00,Wunderground v.1.15,2013-10-18 08:07:00,
2013-10-18 03:12:00,43.7,37.0,29.79,South,188,0.0,0.0,77,0.00,,,0.00,Wunderground v.1.15,2013-10-18 08:12:00,
2013-10-18 03:17:00,43.6,37.2,29.79,SSW,198,0.0,0.0,78,0.00,,,0.00,Wunderground v.1.15,2013-10-18 08:17:00,
2013-10-18 03:22:00,43.4,37.3,29.79,SSW,198,0.0,0.0,79,0.00,,,0.00,Wunderground v.1.15,2013-10-18 08:22:00,
2013-10-18 03:27:00,43.4,37.3,29.79,SSE,149,0.0,0.0,79,0.00,,,0.00,Wunderground v.1.15,2013-10-18 08:27:00,
2013-10-18 03:32:00,43.4,37.6,29.79,SSE,149,0.0,0.0,80,0.00,,,0.00,Wunderground v.1.15,2013-10-18 08:32:00,
2013-10-18 03:37:00,43.3,37.5,29.79,SSE,149,0.0,0.0,80,0.00,,,0.00,Wunderground v.1.15,2013-10-18 08:37:00,
2013-10-18 03:42:00,43.1,37.7,29.79,SSE,149,0.0,0.0,81,0.00,,,0.00,Wunderground v.1.15,2013-10-18 08:42:00,
2013-10-18 03:47:00,43.0,37.9,29.79,SW,225,0.0,0.0,82,0.00,,,0.00,Wunderground v.1.15,2013-10-18 08:47:00,
2013-10-18 03:52:00,42.9,38.1,29.79,SW,225,0.0,0.0,83,0.00,,,0.00,Wunderground v.1.15,2013-10-18 08:52:00,
2013-10-18 03:57:00,43.0,38.2,29.79,SW,225,0.0,0.0,83,0.00,,,0.00,Wunderground v.1.15,2013-10-18 08:57:00,
2013-10-18 04:02:00,43.1,38.3,29.79,SW,219,0.0,0.0,83,0.00,,,0.00,Wunderground v.1.15,2013-10-18 09:02:00,
2013-10-18 04:07:00,43.1,38.3,29.80,WNW,287,0.0,0.0,83,0.00,,,0.00,Wunderground v.1.15,2013-10-18 09:07:00,
2013-10-18 04:12:00,43.1,38.3,29.80,West,277,0.0,0.0,83,0.00,,,0.00,Wunderground v.1.15,2013-10-18 09:12:00,
2013-10-18 04:17:00,43.2,38.7,29.80,South,172,0.0,0.0,84,0.00,,,0.00,Wunderground v.1.15,2013-10-18 09:17:00,
2013-10-18 04:22:00,43.2,38.7,29.79,SSW,193,0.0,0.0,84,0.00,,,0.00,Wunderground v.1.15,2013-10-18 09:22:00,
2013-10-18 04:27:00,43.1,38.6,29.80,SSW,193,0.0,0.0,84,0.00,,,0.00,Wunderground v.1.15,2013-10-18 09:27:00,
2013-10-18 04:32:00,43.0,38.8,29.80,SSW,196,0.0,0.0,85,0.00,,,0.00,Wunderground v.1.15,2013-10-18 09:32:00,
2013-10-18 04:37:00,42.8,38.6,29.80,SSE,155,0.0,0.0,85,0.00,,,0.00,Wunderground v.1.15,2013-10-18 09:37:00,
2013-10-18 04:42:00,42.6,38.7,29.80,SSE,158,0.0,0.0,86,0.00,,,0.00,Wunderground v.1.15,2013-10-18 09:42:00,
2013-10-18 04:47:00,42.5,38.6,29.80,South,180,0.0,0.0,86,0.00,,,0.00,Wunderground v.1.15,2013-10-18 09:47:00,
2013-10-18 04:52:00,42.4,38.8,29.80,West,281,0.0,0.0,87,0.00,,,0.00,Wunderground v.1.15,2013-10-18 09:52:00,
2013-10-18 04:57:00,42.2,38.9,29.80,SW,217,0.0,0.0,88,0.00,,,0.00,Wunderground v.1.15,2013-10-18 09:57:00,
2013-10-18 05:02:00,42.0,38.7,29.80,SSE,163,0.0,0.0,88,0.00,,,0.00,Wunderground v.1.15,2013-10-18 10:02:00,
2013-10-18 05:07:00,41.8,38.8,29.80,WSW,244,0.0,0.0,89,0.00,,,0.00,Wunderground v.1.15,2013-10-18 10:07:00,
2013-10-18 05:12:00,41.6,38.6,29.80,South,174,0.0,0.0,89,0.00,,,0.00,Wunderground v.1.15,2013-10-18 10:12:00,
2013-10-18 05:17:00,41.5,38.8,29.80,WNW,298,0.0,0.0,90,0.00,,,0.00,Wunderground v.1.15,2013-10-18 10:17:00,
2013-10-18 05:22:00,41.5,39.1,29.81,SW,220,0.0,0.0,91,0.00,,,0.00,Wunderground v.1.15,2013-10-18 10:22:00,
2013-10-18 05:27:00,41.6,39.2,29.81,SW,230,0.0,0.0,91,0.00,,,0.00,Wunderground v.1.15,2013-10-18 10:27:00,
2013-10-18 05:32:00,41.8,39.6,29.81,SSW,195,0.0,0.0,92,0.00,,,0.00,Wunderground v.1.15,2013-10-18 10:32:00,
2013-10-18 05:37:00,42.0,39.8,29.81,WSW,242,0.0,0.0,92,0.00,,,0.00,Wunderground v.1.15,2013-10-18 10:37:00,
2013-10-18 05:42:00,42.1,39.9,29.81,WSW,242,0.0,0.0,92,0.00,,,0.00,Wunderground v.1.15,2013-10-18 10:42:00,
2013-10-18 05:47:00,42.3,40.1,29.81,WSW,242,0.0,0.0,92,0.00,,,0.00,Wunderground v.1.15,2013-10-18 10:47:00,
2013-10-18 05:52:00,42.4,40.2,29.81,WSW,241,0.0,0.0,92,0.00,,,0.00,Wunderground v.1.15,2013-10-18 10:52:00,
2013-10-18 05:57:00,42.5,40.3,29.81,SSW,212,0.0,0.0,92,0.00,,,0.00,Wunderground v.1.15,2013-10-18 10:57:00,
2013-10-18 06:02:00,42.6,40.4,29.81,NW,312,0.0,0.0,92,0.00,,,0.00,Wunderground v.1.15,2013-10-18 11:02:00,
2013-10-18 06:07:00,42.7,40.5,29.81,SSW,209,0.0,0.0,92,0.00,,,0.00,Wunderground v.1.15,2013-10-18 11:07:00,
2013-10-18 06:12:00,42.8,40.6,29.81,South,188,0.0,0.0,92,0.00,,,0.00,Wunderground v.1.15,2013-10-18 11:12:00,
2013-10-18 06:17:00,42.9,40.7,29.82,SSE,149,0.0,0.0,92,0.00,,,0.00,Wunderground v.1.15,2013-10-18 11:17:00,
2013-10-18 06:22:00,43.0,41.1,29.82,South,190,0.0,0.0,93,0.00,,,0.00,Wunderground v.1.15,2013-10-18 11:22:00,
2013-10-18 06:27:00,43.0,41.1,29.82,South,188,0.0,0.0,93,0.00,,,0.00,Wunderground v.1.15,2013-10-18 11:27:00,
2013-10-18 06:32:00,43.1,41.2,29.82,SSW,209,0.0,0.0,93,0.00,,,0.00,Wunderground v.1.15,2013-10-18 11:32:00,
2013-10-18 06:37:00,43.1,41.2,29.82,South,175,0.0,0.0,93,0.00,,,0.00,Wunderground v.1.15,2013-10-18 11:37:00,
2013-10-18 06:42:00,43.1,41.2,29.82,WSW,245,0.0,0.0,93,0.00,,,0.00,Wunderground v.1.15,2013-10-18 11:42:00,
2013-10-18 06:47:00,43.1,41.2,29.82,South,175,0.0,0.0,93,0.00,,,0.00,Wunderground v.1.15,2013-10-18 11:47:00,
2013-10-18 06:53:00,43.1,41.2,29.82,South,182,0.0,0.0,93,0.00,,,0.00,Wunderground v.1.15,2013-10-18 11:53:00,
2013-10-18 06:58:00,43.1,41.2,29.82,South,182,0.0,0.0,93,0.00,,,0.00,Wunderground v.1.15,2013-10-18 11:58:00,
2013-10-18 07:03:00,43.1,41.2,29.82,South,189,0.0,0.0,93,0.00,,,0.00,Wunderground v.1.15,2013-10-18 12:03:00,
2013-10-18 07:08:00,43.1,41.2,29.82,SSW,207,0.0,0.0,93,0.00,,,0.00,Wunderground v.1.15,2013-10-18 12:08:00,
2013-10-18 07:13:00,43.2,41.3,29.83,WNW,294,0.0,0.0,93,0.00,,,0.00,Wunderground v.1.15,2013-10-18 12:13:00,
2013-10-18 07:18:00,43.1,41.2,29.83,South,190,0.0,0.0,93,0.00,,,0.00,Wunderground v.1.15,2013-10-18 12:18:00,
2013-10-18 07:23:00,43.1,41.2,29.83,South,181,0.0,0.0,93,0.00,,,0.00,Wunderground v.1.15,2013-10-18 12:23:00,
2013-10-18 07:28:00,43.1,41.2,29.83,SW,233,0.0,0.0,93,0.00,,,0.00,Wunderground v.1.15,2013-10-18 12:28:00,
2013-10-18 07:33:00,43.1,41.2,29.83,South,191,0.0,0.0,93,0.00,,,0.00,Wunderground v.1.15,2013-10-18 12:33:00,
2013-10-18 07:38:00,43.1,41.2,29.84,SSW,201,0.0,0.0,93,0.00,,,0.00,Wunderground v.1.15,2013-10-18 12:38:00,
2013-10-18 07:43:00,43.1,41.2,29.83,SW,236,0.0,0.0,93,0.00,,,0.00,Wunderground v.1.15,2013-10-18 12:43:00,
2013-10-18 07:48:00,43.1,41.2,29.83,South,183,0.0,0.0,93,0.00,,,0.00,Wunderground v.1.15,2013-10-18 12:48:00,
2013-10-18 07:53:00,43.1,40.9,29.83,SSW,198,0.0,0.0,92,0.00,,,0.00,Wunderground v.1.15,2013-10-18 12:53:00,
2013-10-18 07:58:00,43.1,40.9,29.84,SSW,199,0.0,0.0,92,0.00,,,0.00,Wunderground v.1.15,2013-10-18 12:58:00,
2013-10-18 08:03:00,43.1,40.9,29.84,SE,134,0.0,0.0,92,0.00,,,0.00,Wunderground v.1.15,2013-10-18 13:03:00,
2013-10-18 08:08:00,43.1,40.9,29.84,South,184,0.0,0.0,92,0.00,,,0.00,Wunderground v.1.15,2013-10-18 13:08:00,
2013-10-18 08:13:00,43.2,41.0,29.84,SSW,192,0.0,0.0,92,0.00,,,0.00,Wunderground v.1.15,2013-10-18 13:13:00,
2013-10-18 08:18:00,43.3,41.1,29.84,South,173,0.0,0.0,92,0.00,,,0.00,Wunderground v.1.15,2013-10-18 13:18:00,
2013-10-18 08:23:00,43.4,41.2,29.84,SSW,196,0.0,0.0,92,0.00,,,0.00,Wunderground v.1.15,2013-10-18 13:23:00,
2013-10-18 08:28:00,43.4,41.2,29.84,West,264,0.0,0.0,92,0.00,,,0.00,Wunderground v.1.15,2013-10-18 13:28:00,
2013-10-18 08:33:00,43.4,41.2,29.84,WSW,255,0.0,0.0,92,0.00,,,0.00,Wunderground v.1.15,2013-10-18 13:33:00,
2013-10-18 08:38:00,43.4,41.2,29.84,South,190,0.0,0.0,92,0.00,,,0.00,Wunderground v.1.15,2013-10-18 13:38:00,
2013-10-18 08:43:00,43.5,41.3,29.85,SSW,197,0.0,0.0,92,0.00,,,0.00,Wunderground v.1.15,2013-10-18 13:43:00,
2013-10-18 08:48:00,43.5,41.3,29.85,WSW,257,0.0,0.0,92,0.00,,,0.00,Wunderground v.1.15,2013-10-18 13:48:00,
2013-10-18 08:53:00,43.5,41.3,29.85,SSW,212,0.0,0.0,92,0.00,,,0.00,Wunderground v.1.15,2013-10-18 13:53:00,
2013-10-18 08:58:00,43.5,41.3,29.85,SW,219,0.0,0.0,92,0.00,,,0.00,Wunderground v.1.15,2013-10-18 13:58:00,
2013-10-18 09:03:00,43.6,41.4,29.85,South,188,0.0,0.0,92,0.00,,,0.00,Wunderground v.1.15,2013-10-18 14:03:00,
2013-10-18 09:08:00,43.5,41.0,29.85,South,184,0.0,0.0,91,0.00,,,0.00,Wunderground v.1.15,2013-10-18 14:08:00,
2013-10-18 09:13:00,43.5,41.0,29.85,South,178,0.0,0.0,91,0.00,,,0.00,Wunderground v.1.15,2013-10-18 14:13:00,
2013-10-18 09:18:00,43.7,41.2,29.86,WSW,252,0.0,0.0,91,0.00,,,0.00,Wunderground v.1.15,2013-10-18 14:18:00,
2013-10-18 09:23:00,43.8,41.3,29.86,SSW,200,0.0,0.0,91,0.00,,,0.00,Wunderground v.1.15,2013-10-18 14:23:00,
2013-10-18 09:28:00,43.8,41.3,29.86,SSW,211,0.0,0.0,91,0.00,,,0.00,Wunderground v.1.15,2013-10-18 14:28:00,
2013-10-18 09:33:00,43.8,41.3,29.86,ENE,72,0.0,0.0,91,0.00,,,0.00,Wunderground v.1.15,2013-10-18 14:33:00,
2013-10-18 09:38:00,43.7,41.0,29.87,SW,235,0.0,0.0,90,0.00,,,0.00,Wunderground v.1.15,2013-10-18 14:38:00,
2013-10-18 09:43:00,43.6,40.9,29.87,WSW,244,0.0,0.0,90,0.00,,,0.00,Wunderground v.1.15,2013-10-18 14:43:00,
2013-10-18 09:48:00,43.5,40.8,29.87,South,182,0.0,0.0,90,0.00,,,0.00,Wunderground v.1.15,2013-10-18 14:48:00,
2013-10-18 09:53:00,43.5,40.8,29.87,SSW,205,0.0,0.0,90,0.00,,,0.00,Wunderground v.1.15,2013-10-18 14:53:00,
2013-10-18 09:58:00,43.4,40.7,29.87,WSW,247,0.0,0.0,90,0.00,,,0.00,Wunderground v.1.15,2013-10-18 14:58:00,
2013-10-18 10:03:00,43.3,40.3,29.87,West,277,0.0,0.0,89,0.00,,,0.00,Wunderground v.1.15,2013-10-18 15:03:00,
2013-10-18 10:08:00,43.2,40.2,29.87,SW,216,0.0,0.0,89,0.00,,,0.00,Wunderground v.1.15,2013-10-18 15:08:00,
2013-10-18 10:13:00,43.3,40.6,29.87,SW,232,0.0,0.0,90,0.00,,,0.00,Wunderground v.1.15,2013-10-18 15:13:00,
2013-10-18 10:18:00,43.3,40.6,29.87,South,188,0.0,0.0,90,0.00,,,0.00,Wunderground v.1.15,2013-10-18 15:18:00,
2013-10-18 10:23:00,43.3,40.6,29.87,South,169,0.0,0.0,90,0.00,,,0.00,Wunderground v.1.15,2013-10-18 15:23:00,
2013-10-18 10:28:00,43.3,40.6,29.87,WSW,251,0.0,0.0,90,0.00,,,0.00,Wunderground v.1.15,2013-10-18 15:28:00,
2013-10-18 10:33:00,43.4,40.7,29.87,SSW,201,0.0,0.0,90,0.00,,,0.00,Wunderground v.1.15,2013-10-18 15:33:00,
2013-10-18 10:38:00,43.3,40.6,29.88,SSW,205,0.0,0.0,90,0.00,,,0.00,Wunderground v.1.15,2013-10-18 15:38:00,
2013-10-18 10:43:00,43.1,40.1,29.87,SE,124,0.0,0.0,89,0.00,,,0.00,Wunderground v.1.15,2013-10-18 15:43:00,
2013-10-18 10:48:00,42.9,40.2,29.88,SSW,200,0.0,0.0,90,0.00,,,0.00,Wunderground v.1.15,2013-10-18 15:48:00,
2013-10-18 10:53:00,42.8,40.1,29.88,SSW,202,0.0,0.0,90,0.00,,,0.00,Wunderground v.1.15,2013-10-18 15:53:00,
2013-10-18 10:58:00,42.9,40.2,29.88,SSW,213,0.0,0.0,90,0.00,,,0.00,Wunderground v.1.15,2013-10-18 15:58:00,
2013-10-18 11:03:00,43.0,40.3,29.88,WSW,238,0.0,0.0,90,0.00,,,0.00,Wunderground v.1.15,2013-10-18 16:03:00,
2013-10-18 11:08:00,43.4,40.7,29.87,WNW,284,0.0,0.0,90,0.00,,,0.00,Wunderground v.1.15,2013-10-18 16:08:00,
2013-10-18 11:13:00,43.9,41.2,29.88,South,182,0.0,0.0,90,0.00,,,0.00,Wunderground v.1.15,2013-10-18 16:13:00,
2013-10-18 11:18:00,43.8,40.8,29.88,SW,227,0.0,0.0,89,0.00,,,0.00,Wunderground v.1.15,2013-10-18 16:18:00,
2013-10-18 11:23:00,43.8,40.8,29.88,SW,221,0.0,0.0,89,0.00,,,0.00,Wunderground v.1.15,2013-10-18 16:23:00,
2013-10-18 11:28:00,43.6,40.6,29.88,South,180,0.0,0.0,89,0.00,,,0.00,Wunderground v.1.15,2013-10-18 16:28:00,
2013-10-18 11:33:00,43.4,40.4,29.88,South,172,0.0,0.0,89,0.00,,,0.00,Wunderground v.1.15,2013-10-18 16:33:00,
2013-10-18 11:38:00,43.1,40.1,29.88,South,178,0.0,0.0,89,0.00,,,0.00,Wunderground v.1.15,2013-10-18 16:38:00,
2013-10-18 11:43:00,42.8,40.1,29.88,SW,235,0.0,0.0,90,0.00,,,0.00,Wunderground v.1.15,2013-10-18 16:43:00,
2013-10-18 11:48:00,42.6,40.2,29.88,WSW,245,0.0,0.0,91,0.00,,,0.00,Wunderground v.1.15,2013-10-18 16:48:00,
2013-10-18 11:53:00,42.6,39.9,29.88,South,186,0.0,0.0,90,0.00,,,0.00,Wunderground v.1.15,2013-10-18 16:53:00,
2013-10-18 11:58:00,42.6,39.9,29.89,South,171,0.0,0.0,90,0.00,,,0.00,Wunderground v.1.15,2013-10-18 16:58:00,
2013-10-18 12:03:00,42.8,40.4,29.89,South,189,0.0,0.0,91,0.00,,,0.00,Wunderground v.1.15,2013-10-18 17:03:00,
2013-10-18 12:08:00,43.1,40.4,29.89,WSW,240,0.0,0.0,90,0.00,,,0.00,Wunderground v.1.15,2013-10-18 17:08:00,
2013-10-18 12:13:00,43.2,40.2,29.89,SSW,212,0.0,0.0,89,0.00,,,0.00,Wunderground v.1.15,2013-10-18 17:13:00,
2013-10-18 12:18:00,43.4,40.1,29.88,SW,219,0.0,0.0,88,0.00,,,0.00,Wunderground v.1.15,2013-10-18 17:18:00,
2013-10-18 12:23:00,43.5,39.9,29.89,SW,219,0.0,0.0,87,0.00,,,0.00,Wunderground v.1.15,2013-10-18 17:23:00,
2013-10-18 12:28:00,43.4,39.8,29.89,SSW,211,0.0,0.0,87,0.00,,,0.00,Wunderground v.1.15,2013-10-18 17:28:00,
2013-10-18 12:33:00,43.6,40.0,29.89,South,182,0.0,0.0,87,0.00,,,0.00,Wunderground v.1.15,2013-10-18 17:33:00,
2013-10-18 12:35:00,43.6,39.7,29.89,SW,223,0.0,0.0,86,0.00,,,0.00,Wunderground v.1.15,2013-10-18 17:35:00,
2013-10-18 12:40:00,43.5,39.6,29.89,West,261,0.0,0.0,86,0.00,,,0.00,Wunderground v.1.15,2013-10-18 17:40:00,
2013-10-18 12:45:00,43.5,39.6,29.89,SSW,196,0.0,0.0,86,0.00,,,0.00,Wunderground v.1.15,2013-10-18 17:45:00,
2013-10-18 12:50:00,43.6,39.7,29.89,SSW,199,0.0,0.0,86,0.00,,,0.00,Wunderground v.1.15,2013-10-18 17:50:00,
2013-10-18 12:55:00,43.6,39.7,29.89,South,188,0.0,0.0,86,0.00,,,0.00,Wunderground v.1.15,2013-10-18 17:55:00,
2013-10-18 13:00:00,43.4,39.5,29.89,SSE,166,0.0,0.0,86,0.00,,,0.00,Wunderground v.1.15,2013-10-18 18:00:00,
2013-10-18 13:05:00,43.3,39.4,29.89,WSW,251,0.0,0.0,86,0.00,,,0.00,Wunderground v.1.15,2013-10-18 18:05:00,
2013-10-18 13:10:00,43.2,39.3,29.89,SW,228,0.0,0.0,86,0.00,,,0.00,Wunderground v.1.15,2013-10-18 18:10:00,
2013-10-18 13:15:00,43.2,39.3,29.89,NW,306,0.0,0.0,86,0.00,,,0.00,Wunderground v.1.15,2013-10-18 18:15:00,
2013-10-18 13:20:00,43.2,39.3,29.89,South,175,0.0,0.0,86,0.00,,,0.00,Wunderground v.1.15,2013-10-18 18:20:00,
2013-10-18 13:25:00,43.2,39.0,29.89,West,261,0.0,0.0,85,0.00,,,0.00,Wunderground v.1.15,2013-10-18 18:25:00,
2013-10-18 13:30:00,43.1,38.9,29.89,WSW,248,0.0,0.0,85,0.00,,,0.00,Wunderground v.1.15,2013-10-18 18:30:00,
2013-10-18 13:35:00,43.1,38.9,29.90,SSW,198,0.0,0.0,85,0.00,,,0.00,Wunderground v.1.15,2013-10-18 18:35:00,
2013-10-18 13:40:00,43.0,38.8,29.90,SSW,199,0.0,0.0,85,0.00,,,0.00,Wunderground v.1.15,2013-10-18 18:40:00,
2013-10-18 13:45:00,43.1,38.9,29.90,SW,233,0.0,0.0,85,0.00,,,0.00,Wunderground v.1.15,2013-10-18 18:45:00,
2013-10-18 13:50:00,43.0,38.8,29.90,West,268,0.0,0.0,85,0.00,,,0.00,Wunderground v.1.15,2013-10-18 18:50:00,
2013-10-18 13:55:00,42.9,38.7,29.90,NE,48,0.0,0.0,85,0.00,,,0.00,Wunderground v.1.15,2013-10-18 18:55:00,
2013-10-18 14:00:00,42.9,38.7,29.90,WNW,295,0.0,0.0,85,0.00,,,0.00,Wunderground v.1.15,2013-10-18 19:00:00,
2013-10-18 14:05:00,43.1,38.9,29.89,SSW,205,0.0,0.0,85,0.00,,,0.00,Wunderground v.1.15,2013-10-18 19:05:00,
2013-10-18 14:10:00,43.2,39.0,29.89,WNW,284,0.0,0.0,85,0.00,,,0.00,Wunderground v.1.15,2013-10-18 19:10:00,
2013-10-18 14:15:00,43.1,38.6,29.89,SSW,205,0.0,0.0,84,0.00,,,0.00,Wunderground v.1.15,2013-10-18 19:15:00,
2013-10-18 14:20:00,43.1,38.6,29.89,WNW,300,0.0,0.0,84,0.00,,,0.00,Wunderground v.1.15,2013-10-18 19:20:00,
2013-10-18 14:25:00,43.2,38.7,29.89,WNW,299,0.0,0.0,84,0.00,,,0.00,Wunderground v.1.15,2013-10-18 19:25:00,
2013-10-18 14:30:00,43.2,38.4,29.89,West,272,0.0,0.0,83,0.00,,,0.00,Wunderground v.1.15,2013-10-18 19:30:00,
2013-10-18 14:35:00,43.3,38.5,29.89,SSW,192,0.0,0.0,83,0.00,,,0.00,Wunderground v.1.15,2013-10-18 19:35:00,
2013-10-18 14:40:00,43.5,38.4,29.89,SSE,167,0.0,0.0,82,0.00,,,0.00,Wunderground v.1.15,2013-10-18 19:40:00,
2013-10-18 14:45:00,43.6,38.5,29.89,WNW,303,0.0,0.0,82,0.00,,,0.00,Wunderground v.1.15,2013-10-18 19:45:00,
2013-10-18 14:50:00,43.7,38.9,29.89,WNW,294,0.0,0.0,83,0.00,,,0.00,Wunderground v.1.15,2013-10-18 19:50:00,
2013-10-18 14:55:00,43.7,38.3,29.89,WSW,248,0.0,0.0,81,0.00,,,0.00,Wunderground v.1.15,2013-10-18 19:55:00,
2013-10-18 15:00:00,43.7,38.6,29.89,South,177,0.0,0.0,82,0.00,,,0.00,Wunderground v.1.15,2013-10-18 20:00:00,
2013-10-18 15:05:00,43.8,38.3,29.89,WSW,240,0.0,0.0,81,0.00,,,0.00,Wunderground v.1.15,2013-10-18 20:05:00,
2013-10-18 15:11:00,43.9,38.1,29.89,WSW,255,0.0,0.0,80,0.00,,,0.00,Wunderground v.1.15,2013-10-18 20:11:00,
2013-10-18 15:16:00,43.8,38.0,29.89,WNW,296,0.0,0.0,80,0.00,,,0.00,Wunderground v.1.15,2013-10-18 20:16:00,
2013-10-18 15:21:00,43.8,38.3,29.89,NNW,331,0.0,0.0,81,0.00,,,0.00,Wunderground v.1.15,2013-10-18 20:21:00,
2013-10-18 15:26:00,43.7,37.9,29.90,West,273,0.0,0.0,80,0.00,,,0.00,Wunderground v.1.15,2013-10-18 20:26:00,
2013-10-18 15:31:00,43.7,37.9,29.89,WSW,249,0.0,0.0,80,0.00,,,0.00,Wunderground v.1.15,2013-10-18 20:31:00,
2013-10-18 15:36:00,43.8,38.3,29.90,NNW,330,0.0,0.0,81,0.00,,,0.00,Wunderground v.1.15,2013-10-18 20:36:00,
2013-10-18 15:41:00,43.8,38.0,29.90,NW,308,0.0,0.0,80,0.00,,,0.00,Wunderground v.1.15,2013-10-18 20:41:00,
2013-10-18 15:46:00,43.7,38.3,29.90,West,263,0.0,0.0,81,0.00,,,0.00,Wunderground v.1.15,2013-10-18 20:46:00,
2013-10-18 15:51:00,43.6,38.2,29.90,West,279,0.0,0.0,81,0.00,,,0.00,Wunderground v.1.15,2013-10-18 20:51:00,
2013-10-18 15:56:00,43.6,38.5,29.90,WNW,298,0.0,0.0,82,0.00,,,0.00,Wunderground v.1.15,2013-10-18 20:56:00,
2013-10-18 16:01:00,43.4,38.3,29.90,SSW,213,0.0,0.0,82,0.00,,,0.00,Wunderground v.1.15,2013-10-18 21:01:00,
2013-10-18 16:06:00,43.3,38.2,29.90,SSW,199,0.0,0.0,82,0.00,,,0.00,Wunderground v.1.15,2013-10-18 21:06:00,
2013-10-18 16:11:00,43.4,38.6,29.90,WSW,244,0.0,0.0,83,0.00,,,0.00,Wunderground v.1.15,2013-10-18 21:11:00,
2013-10-18 16:16:00,43.5,38.4,29.90,South,171,0.0,0.0,82,0.00,,,0.00,Wunderground v.1.15,2013-10-18 21:16:00,
2013-10-18 16:21:00,43.6,38.5,29.91,South,186,0.0,0.0,82,0.00,,,0.00,Wunderground v.1.15,2013-10-18 21:21:00,
2013-10-18 16:26:00,43.6,38.5,29.91,West,280,0.0,0.0,82,0.00,,,0.00,Wunderground v.1.15,2013-10-18 21:26:00,
2013-10-18 16:31:00,43.7,38.3,29.90,WSW,242,0.0,0.0,81,0.00,,,0.00,Wunderground v.1.15,2013-10-18 21:31:00,
2013-10-18 16:36:00,43.8,38.7,29.90,West,261,0.0,0.0,82,0.00,,,0.00,Wunderground v.1.15,2013-10-18 21:36:00,
2013-10-18 16:41:00,43.9,38.4,29.90,SSW,209,0.0,0.0,81,0.00,,,0.00,Wunderground v.1.15,2013-10-18 21:41:00,
2013-10-18 16:46:00,44.0,38.5,29.90,WNW,289,0.0,0.0,81,0.00,,,0.00,Wunderground v.1.15,2013-10-18 21:46:00,
2013-10-18 16:51:00,44.0,38.5,29.90,SSW,213,0.0,0.0,81,0.00,,,0.00,Wunderground v.1.15,2013-10-18 21:51:00,
2013-10-18 16:56:00,43.9,38.4,29.90,WNW,282,0.0,0.0,81,0.00,,,0.00,Wunderground v.1.15,2013-10-18 21:56:00,
2013-10-18 17:01:00,43.9,38.1,29.91,SW,230,0.0,0.0,80,0.00,,,0.00,Wunderground v.1.15,2013-10-18 22:01:00,
2013-10-18 17:06:00,43.7,38.3,29.91,WSW,238,0.0,0.0,81,0.00,,,0.00,Wunderground v.1.15,2013-10-18 22:06:00,
2013-10-18 17:11:00,43.4,38.0,29.91,SSW,202,0.0,0.0,81,0.00,,,0.00,Wunderground v.1.15,2013-10-18 22:11:00,
2013-10-18 17:16:00,43.2,37.8,29.91,SSW,197,0.0,0.0,81,0.00,,,0.00,Wunderground v.1.15,2013-10-18 22:16:00,
2013-10-18 17:21:00,43.1,37.7,29.91,South,175,0.0,0.0,81,0.00,,,0.00,Wunderground v.1.15,2013-10-18 22:21:00,
2013-10-18 17:26:00,43.0,37.6,29.92,South,181,0.0,0.0,81,0.00,,,0.00,Wunderground v.1.15,2013-10-18 22:26:00,
2013-10-18 17:31:00,43.0,37.6,29.92,WNW,295,0.0,0.0,81,0.00,,,0.00,Wunderground v.1.15,2013-10-18 22:31:00,
2013-10-18 17:36:00,42.9,37.5,29.92,South,186,0.0,0.0,81,0.00,,,0.00,Wunderground v.1.15,2013-10-18 22:36:00,
2013-10-18 17:41:00,42.7,37.6,29.92,South,186,0.0,0.0,82,0.00,,,0.00,Wunderground v.1.15,2013-10-18 22:41:00,
2013-10-18 17:46:00,42.5,37.4,29.92,South,187,0.0,0.0,82,0.00,,,0.00,Wunderground v.1.15,2013-10-18 22:46:00,
2013-10-18 17:52:00,42.3,37.2,29.92,South,187,0.0,0.0,82,0.00,,,0.00,Wunderground v.1.15,2013-10-18 22:52:00,
2013-10-18 17:57:00,42.2,37.4,29.92,South,187,0.0,0.0,83,0.00,,,0.00,Wunderground v.1.15,2013-10-18 22:57:00,
2013-10-18 18:02:00,42.0,37.2,29.92,South,187,0.0,0.0,83,0.00,,,0.00,Wunderground v.1.15,2013-10-18 23:02:00,
2013-10-18 18:07:00,41.7,36.9,29.92,South,187,0.0,0.0,83,0.00,,,0.00,Wunderground v.1.15,2013-10-18 23:07:00,
2013-10-18 18:12:00,41.4,36.9,29.92,South,187,0.0,0.0,84,0.00,,,0.00,Wunderground v.1.15,2013-10-18 23:12:00,
2013-10-18 18:17:00,41.2,36.7,29.92,South,187,0.0,0.0,84,0.00,,,0.00,Wunderground v.1.15,2013-10-18 23:17:00,
2013-10-18 18:22:00,40.9,36.7,29.92,South,187,0.0,0.0,85,0.00,,,0.00,Wunderground v.1.15,2013-10-18 23:22:00,
2013-10-18 18:27:00,40.7,36.5,29.92,South,187,0.0,0.0,85,0.00,,,0.00,Wunderground v.1.15,2013-10-18 23:27:00,
2013-10-18 18:32:00,40.5,36.6,29.92,South,187,0.0,0.0,86,0.00,,,0.00,Wunderground v.1.15,2013-10-18 23:32:00,
2013-10-18 18:37:00,40.2,36.3,29.93,South,187,0.0,0.0,86,0.00,,,0.00,Wunderground v.1.15,2013-10-18 23:37:00,
2013-10-18 18:42:00,40.0,36.2,29.93,South,187,0.0,0.0,86,0.00,,,0.00,Wunderground v.1.15,2013-10-18 23:42:00,
2013-10-18 18:47:00,39.8,36.2,29.93,South,187,0.0,0.0,87,0.00,,,0.00,Wunderground v.1.15,2013-10-18 23:47:00,
2013-10-18 18:52:00,39.6,36.0,29.93,South,187,0.0,0.0,87,0.00,,,0.00,Wunderground v.1.15,2013-10-18 23:52:00,
2013-10-18 18:57:00,39.5,36.0,29.93,South,187,0.0,0.0,87,0.00,,,0.00,Wunderground v.1.15,2013-10-18 23:57:00,
2013-10-18 19:02:00,39.3,36.0,29.94,South,187,0.0,0.0,88,0.00,,,0.00,Wunderground v.1.15,2013-10-19 00:02:00,
2013-10-18 19:07:00,39.1,35.8,29.94,South,187,0.0,0.0,88,0.00,,,0.00,Wunderground v.1.15,2013-10-19 00:07:00,
2013-10-18 19:12:00,39.1,35.8,29.94,South,187,0.0,0.0,88,0.00,,,0.00,Wunderground v.1.15,2013-10-19 00:12:00,
2013-10-18 19:17:00,39.0,35.7,29.94,South,187,0.0,0.0,88,0.00,,,0.00,Wunderground v.1.15,2013-10-19 00:17:00,
2013-10-18 19:22:00,39.0,35.7,29.94,South,187,0.0,0.0,88,0.00,,,0.00,Wunderground v.1.15,2013-10-19 00:22:00,
2013-10-18 19:27:00,38.9,35.6,29.94,South,187,0.0,0.0,88,0.00,,,0.00,Wunderground v.1.15,2013-10-19 00:27:00,
2013-10-18 19:32:00,38.9,35.9,29.94,South,187,0.0,0.0,89,0.00,,,0.00,Wunderground v.1.15,2013-10-19 00:32:00,
2013-10-18 19:37:00,38.8,35.6,29.94,South,187,0.0,0.0,88,0.00,,,0.00,Wunderground v.1.15,2013-10-19 00:37:00,
2013-10-18 19:42:00,38.7,35.5,29.94,South,187,0.0,0.0,88,0.00,,,0.00,Wunderground v.1.15,2013-10-19 00:42:00,
2013-10-18 19:47:00,38.7,35.5,29.94,South,187,0.0,0.0,88,0.00,,,0.00,Wunderground v.1.15,2013-10-19 00:47:00,
2013-10-18 19:52:00,38.6,35.4,29.94,South,187,0.0,0.0,88,0.00,,,0.00,Wunderground v.1.15,2013-10-19 00:52:00,
2013-10-18 19:57:00,38.6,35.4,29.94,South,187,0.0,0.0,88,0.00,,,0.00,Wunderground v.1.15,2013-10-19 00:57:00,
2013-10-18 20:02:00,38.6,35.4,29.94,South,187,0.0,0.0,88,0.00,,,0.00,Wunderground v.1.15,2013-10-19 01:02:00,
2013-10-18 20:07:00,38.6,35.4,29.94,South,187,0.0,0.0,88,0.00,,,0.00,Wunderground v.1.15,2013-10-19 01:07:00,
2013-10-18 20:12:00,38.6,35.4,29.94,South,187,0.0,0.0,88,0.00,,,0.00,Wunderground v.1.15,2013-10-19 01:12:00,
2013-10-18 20:17:00,38.6,35.4,29.94,South,187,0.0,0.0,88,0.00,,,0.00,Wunderground v.1.15,2013-10-19 01:17:00,
2013-10-18 20:22:00,38.6,35.4,29.94,South,187,0.0,0.0,88,0.00,,,0.00,Wunderground v.1.15,2013-10-19 01:22:00,
2013-10-18 20:27:00,38.6,35.4,29.94,South,187,0.0,0.0,88,0.00,,,0.00,Wunderground v.1.15,2013-10-19 01:27:00,
2013-10-18 20:32:00,38.6,35.6,29.94,South,187,0.0,0.0,89,0.00,,,0.00,Wunderground v.1.15,2013-10-19 01:32:00,
2013-10-18 20:37:00,38.4,35.4,29.94,South,187,0.0,0.0,89,0.00,,,0.00,Wunderground v.1.15,2013-10-19 01:37:00,
2013-10-18 20:42:00,38.3,35.1,29.94,South,187,0.0,0.0,88,0.00,,,0.00,Wunderground v.1.15,2013-10-19 01:42:00,
2013-10-18 20:47:00,38.3,35.1,29.94,South,187,0.0,0.0,88,0.00,,,0.00,Wunderground v.1.15,2013-10-19 01:47:00,
2013-10-18 20:52:00,38.3,35.1,29.94,South,187,0.0,0.0,88,0.00,,,0.00,Wunderground v.1.15,2013-10-19 01:52:00,
2013-10-18 20:57:00,38.3,35.1,29.94,South,187,0.0,0.0,88,0.00,,,0.00,Wunderground v.1.15,2013-10-19 01:57:00,
2013-10-18 21:02:00,38.3,35.3,29.94,South,187,0.0,0.0,89,0.00,,,0.00,Wunderground v.1.15,2013-10-19 02:02:00,
2013-10-18 21:07:00,38.2,35.2,29.94,South,187,0.0,0.0,89,0.00,,,0.00,Wunderground v.1.15,2013-10-19 02:07:00,
2013-10-18 21:12:00,38.2,35.2,29.93,South,187,0.0,0.0,89,0.00,,,0.00,Wunderground v.1.15,2013-10-19 02:12:00,
2013-10-18 21:17:00,38.2,35.2,29.93,South,187,0.0,0.0,89,0.00,,,0.00,Wunderground v.1.15,2013-10-19 02:17:00,
2013-10-18 21:22:00,38.1,34.9,29.93,South,187,0.0,0.0,88,0.00,,,0.00,Wunderground v.1.15,2013-10-19 02:22:00,
2013-10-18 21:27:00,38.1,34.9,29.93,South,187,0.0,0.0,88,0.00,,,0.00,Wunderground v.1.15,2013-10-19 02:27:00,
2013-10-18 21:32:00,38.1,34.9,29.93,South,187,0.0,0.0,88,0.00,,,0.00,Wunderground v.1.15,2013-10-19 02:32:00,
2013-10-18 21:37:00,38.1,34.9,29.93,South,187,0.0,0.0,88,0.00,,,0.00,Wunderground v.1.15,2013-10-19 02:37:00,
2013-10-18 21:42:00,38.2,34.7,29.93,South,187,0.0,0.0,87,0.00,,,0.00,Wunderground v.1.15,2013-10-19 02:42:00,
2013-10-18 21:47:00,38.2,34.7,29.92,South,187,0.0,0.0,87,0.00,,,0.00,Wunderground v.1.15,2013-10-19 02:47:00,
2013-10-18 21:52:00,38.2,34.7,29.92,South,187,0.0,0.0,87,0.00,,,0.00,Wunderground v.1.15,2013-10-19 02:52:00,
2013-10-18 21:57:00,38.2,35.0,29.93,South,187,0.0,0.0,88,0.00,,,0.00,Wunderground v.1.15,2013-10-19 02:57:00,
2013-10-18 22:02:00,38.1,34.9,29.93,South,187,0.0,0.0,88,0.00,,,0.00,Wunderground v.1.15,2013-10-19 03:02:00,
2013-10-18 22:07:00,38.0,34.5,29.93,South,187,0.0,0.0,87,0.00,,,0.00,Wunderground v.1.15,2013-10-19 03:07:00,
2013-10-18 22:12:00,38.0,34.8,29.93,South,187,0.0,0.0,88,0.00,,,0.00,Wunderground v.1.15,2013-10-19 03:12:00,
2013-10-18 22:17:00,38.0,34.8,29.92,South,187,0.0,0.0,88,0.00,,,0.00,Wunderground v.1.15,2013-10-19 03:17:00,
2013-10-18 22:22:00,37.9,34.7,29.92,South,187,0.0,0.0,88,0.00,,,0.00,Wunderground v.1.15,2013-10-19 03:22:00,
2013-10-18 22:27:00,37.9,34.9,29.92,South,187,0.0,0.0,89,0.00,,,0.00,Wunderground v.1.15,2013-10-19 03:27:00,
2013-10-18 22:32:00,37.9,34.7,29.92,South,187,0.0,0.0,88,0.00,,,0.00,Wunderground v.1.15,2013-10-19 03:32:00,
2013-10-18 22:37:00,37.8,34.6,29.92,South,187,0.0,0.0,88,0.00,,,0.00,Wunderground v.1.15,2013-10-19 03:37:00,
2013-10-18 22:42:00,37.8,34.6,29.92,South,187,0.0,0.0,88,0.00,,,0.00,Wunderground v.1.15,2013-10-19 03:42:00,
2013-10-18 22:47:00,37.8,34.6,29.93,South,187,0.0,0.0,88,0.00,,,0.00,Wunderground v.1.15,2013-10-19 03:47:00,
2013-10-18 22:52:00,37.7,34.8,29.92,South,187,0.0,0.0,89,0.00,,,0.00,Wunderground v.1.15,2013-10-19 03:52:00,
2013-10-18 22:57:00,37.7,34.8,29.92,South,187,0.0,0.0,89,0.00,,,0.00,Wunderground v.1.15,2013-10-19 03:57:00,
2013-10-18 23:01:00,37.6,34.7,29.92,South,187,0.0,0.0,89,0.00,,,0.00,Wunderground v.1.15,2013-10-19 04:01:00,
2013-10-18 23:06:00,37.6,34.7,29.92,South,187,0.0,0.0,89,0.00,,,0.00,Wunderground v.1.15,2013-10-19 04:06:00,
2013-10-18 23:11:00,37.5,34.3,29.92,South,187,0.0,0.0,88,0.00,,,0.00,Wunderground v.1.15,2013-10-19 04:11:00,
2013-10-18 23:16:00,37.5,34.3,29.92,South,187,0.0,0.0,88,0.00,,,0.00,Wunderground v.1.15,2013-10-19 04:16:00,
2013-10-18 23:21:00,37.4,33.9,29.92,South,187,0.0,0.0,87,0.00,,,0.00,Wunderground v.1.15,2013-10-19 04:21:00,
2013-10-18 23:26:00,37.5,34.0,29.92,South,187,0.0,0.0,87,0.00,,,0.00,Wunderground v.1.15,2013-10-19 04:26:00,
2013-10-18 23:31:00,37.5,34.0,29.92,South,187,0.0,0.0,87,0.00,,,0.00,Wunderground v.1.15,2013-10-19 04:31:00,
2013-10-18 23:36:00,37.5,34.3,29.92,South,187,0.0,0.0,88,0.00,,,0.00,Wunderground v.1.15,2013-10-19 04:36:00,
2013-10-18 23:41:00,37.5,34.3,29.92,South,187,0.0,0.0,88,0.00,,,0.00,Wunderground v.1.15,2013-10-19 04:41:00,
2013-10-18 23:46:00,37.5,34.3,29.92,South,187,0.0,0.0,88,0.00,,,0.00,Wunderground v.1.15,2013-10-19 04:46:00,
2013-10-18 23:51:00,37.5,34.3,29.91,South,187,0.0,0.0,88,0.00,,,0.00,Wunderground v.1.15,2013-10-19 04:51:00,
2013-10-18 23:56:00,37.6,34.4,29.91,South,187,0.0,0.0,88,0.00,,,0.00,Wunderground v.1.15,2013-10-19 04:56:00,